Home > Time Zones > World Clock > Weather > France > Pau > Past weeks

Flag for France Weather past 2 weeks in Pau, France

Now
57 °F

Overcast.


Feels Like: 55 °F
Forecast: 53 / 62 °F
Wind: 8 mph from Southwest

Location: Pau Airport

Current Time: May 25, 2015 at 11:42:29 PM

Latest Report: May 25, 2015 at 11:00 PM


Visibility: N/A

Pressure: 30.18 "Hg

Humidity: 82%

Dew point: 52 °F

Location of PauLocation

Historic Weather in Pau — Graph

°F

Pau temperature yesterday

Maximum temperature yesterday: 72 °F (at 4:30 PM)
Minimum temperature yesterday: 55 °F (at 12:00 AM)
Average temperature yesterday: 61 °F

Past Weeks' High & Low Weather Summary

 TemperatureHumidityPressure
High79 °F (May 11, 5:00 PM)100% (May 11, 5:00 AM)30.48 "Hg (May 11, 5:00 AM)
Low46 °F (May 21, 3:00 AM)43% (May 22, 3:30 PM)29.95 "Hg (May 18, 4:30 PM)
Average58 °F81%30.19 "Hg
* Reported May 10 10:00 PM — May 25 10:30 PM, Pau, Weather by CustomWeather, © 2015

Note: Actual official high and low records may vary slightly from our data, if they occured in-between our weather recording intervals... More about our weather records

Advertising

Pau weather history for previous 24 hours

 ConditionsComfort  
Time TempWeatherWind HumidityBarometerVisibility
10:30 PM
Mon, May 25
57 °FPassing clouds.8 mph82%30.18 "HgN/A
10:00 PM57 °FBroken clouds.10 mph82%30.18 "HgN/A
9:30 PM59 °FScattered clouds.10 mph77%30.18 "HgN/A
9:00 PM59 °FBroken clouds.12 mph77%30.15 "HgN/A
8:30 PM61 °FMostly cloudy.15 mph72%30.15 "HgN/A
8:00 PM61 °FMore clouds than sun.13 mph72%30.15 "HgN/A
7:30 PM63 °FMostly cloudy.14 mph68%30.15 "HgN/A
7:00 PM63 °FPartly sunny.14 mph68%30.15 "HgN/A
6:30 PM64 °FMore clouds than sun.13 mph68%30.15 "HgN/A
6:00 PM64 °FMostly cloudy.15 mph68%30.15 "HgN/A
5:30 PM66 °FBroken clouds.15 mph60%30.15 "HgN/A
5:00 PM66 °FPartly sunny.15 mph60%30.15 "HgN/A
4:30 PM64 °FPartly sunny.14 mph64%30.15 "HgN/A
4:00 PM66 °FPartly sunny.14 mph60%30.15 "HgN/A
3:30 PM66 °FMostly cloudy.14 mph64%30.15 "HgN/A
3:00 PM66 °FPartly sunny.13 mph64%30.18 "HgN/A
2:30 PM66 °FBroken clouds.14 mph60%30.18 "HgN/A
2:00 PM64 °FMostly cloudy.13 mph64%30.18 "HgN/A
1:30 PM64 °FPartly sunny.15 mph64%30.18 "HgN/A
1:00 PM64 °FCloudy.14 mph68%30.18 "HgN/A
12:30 PM64 °FPartly sunny.14 mph64%30.18 "HgN/A
12:00 PM63 °FMostly cloudy.14 mph68%30.18 "HgN/A
11:30 AM63 °FMostly cloudy.13 mph68%30.18 "HgN/A
11:00 AM61 °FCloudy.15 mph77%30.18 "HgN/A
10:30 AM61 °FMostly cloudy.13 mph83%30.18 "HgN/A
10:00 AM59 °FPartly sunny.9 mph82%30.18 "HgN/A
9:30 AM59 °FMostly cloudy.10 mph82%30.18 "HgN/A
9:00 AM59 °FMostly cloudy.10 mph88%30.18 "HgN/A
8:30 AM59 °FBroken clouds.10 mph88%30.18 "HgN/A
8:00 AM57 °FMostly cloudy.8 mph94%30.18 "HgN/A
7:30 AM57 °FOvercast.8 mph94%30.18 "HgN/A
7:00 AM57 °FMostly cloudy.8 mph94%30.15 "HgN/A
6:30 AM57 °FMostly cloudy.7 mph94%30.15 "HgN/A
6:00 AM57 °FLow clouds.7 mph94%30.15 "HgN/A
5:30 AM57 °FOvercast.7 mph94%30.15 "HgN/A
5:00 AM57 °FMostly cloudy.10 mph94%30.15 "HgN/A
4:30 AM59 °FPassing clouds.8 mph88%30.15 "HgN/A
4:00 AM59 °FMostly cloudy.9 mph88%30.15 "HgN/A
3:30 AM59 °FOvercast.7 mph88%30.15 "HgN/A
3:00 AM59 °FMostly cloudy.7 mph88%30.15 "HgN/A
2:30 AM59 °FMostly cloudy.7 mph88%30.15 "HgN/A
2:00 AM59 °FOvercast.7 mph88%30.15 "HgN/A
1:30 AM59 °FOvercast.7 mph88%30.15 "HgN/A
1:00 AM59 °FMostly cloudy.8 mph88%30.15 "HgN/A
12:30 AM59 °FMostly cloudy.7 mph88%30.15 "HgN/A
12:00 AM59 °FPassing clouds.8 mph88%30.15 "HgN/A
11:30 PM
Sun, May 24
61 °FMostly cloudy.9 mph83%30.15 "HgN/A
11:00 PM61 °FOvercast.8 mph88%30.15 "HgN/A
Weather by CustomWeather, © 2015

See weather overviewHow to use our weather pages